Flag for Argentina Weather past 2 weeks in Tucumán, Tucumán, Argentina

Now
68 °F

Clear.


Feels Like: 68 °F
Forecast: 51 / 92 °F
Wind: 7 mph from Northwest

Location: Tucuman Aerodrome

Current Time: Aug 28, 2015 at 10:50:09 AM

Latest Report: Aug 28, 2015 at 10:00 AM


Visibility: 4 mi

Pressure: 29.98 "Hg

Humidity: 64%

Dew point: 55 °F

Location of TucumánLocation

Historic Weather in Tucumán — Graph

°F

Tucumán temperature yesterday

Maximum temperature yesterday: 77 °F (at 3:00 PM)
Minimum temperature yesterday: 50 °F (at 8:00 AM)
Average temperature yesterday: 65 °F

Past Weeks' High & Low Weather Summary

 TemperatureHumidityPressure
High88 °F (Aug 26, 2:00 PM)100% (Aug 19, 10:00 PM)30.27 "Hg (Aug 19, 10:00 PM)
Low41 °F (Aug 15, 6:00 AM)18% (Aug 23, 4:00 PM)29.62 "Hg (Aug 22, 5:00 AM)
Average60 °F66%30.03 "Hg
* Reported Aug 13 8:00 AM — Aug 28 8:00 AM, Tucumán, Weather by CustomWeather, © 2015

Note: Actual official high and low records may vary slightly from our data, if they occured in-between our weather recording intervals... More about our weather records

Advertising

Tucumán weather history for previous 24 hours

 ConditionsComfort  
Time TempWeatherWind HumidityBarometerVisibility
8:00 AM
Fri, Aug 28
55 °FClear.5 mph82%29.95 "Hg2 mi
7:00 AM55 °FClear.7 mph82%29.95 "Hg3 mi
6:00 AM55 °FClear.5 mph82%29.95 "Hg2 mi
5:00 AM59 °FClear.5 mph77%29.95 "Hg3 mi
4:00 AM55 °FClear.5 mph88%29.98 "Hg3 mi
3:00 AM59 °FClear.7 mph82%29.98 "Hg3 mi
2:00 AM59 °FClear.8 mph82%30.01 "Hg3 mi
1:00 AM59 °FClear.9 mph82%30.04 "Hg2 mi
12:00 AM59 °FClear.6 mph82%30.04 "Hg2 mi
11:00 PM
Thu, Aug 27
63 °FClear.5 mph77%30.07 "Hg2 mi
10:00 PM66 °FClear.No wind73%30.07 "Hg2 mi
9:00 PM68 °FClear.No wind69%30.04 "Hg2 mi
8:00 PM68 °FPassing clouds.7 mph64%30.04 "Hg2 mi
7:00 PM72 °FPassing clouds.No wind53%30.01 "Hg2 mi
6:00 PM77 °FScattered clouds.6 mph42%30.04 "Hg2 mi
5:00 PM77 °FPassing clouds.14 mph44%30.01 "Hg2 mi
4:00 PM77 °FPartly sunny.12 mph44%30.04 "Hg2 mi
3:00 PM77 °FPassing clouds.9 mph44%30.07 "Hg3 mi
2:00 PM73 °FClear.6 mph47%30.09 "Hg3 mi
1:00 PM73 °FClear.6 mph50%30.15 "Hg3 mi
12:00 PM70 °FClear.No wind57%30.15 "Hg3 mi
11:00 AM66 °FClear.No wind64%30.18 "Hg3 mi
10:00 AM64 °FClear.3 mph64%30.18 "Hg3 mi
Weather by CustomWeather, © 2015

See weather overviewHow to use our weather pages